Retour au catalogue

THORAD DELTA 1 DEB

ActifLEO
NORAD 9988·DEBRIS·🇺🇸 United States

Lancé Nov 15, 1974 depuis Vandenberg Space Force Base

Loading…

Prochains Passages (prochaines 24 heures)

TLE

FraisSource: Space-Track

Époque: Sep 13, 2026, 05:29 UTC

1 09988U 74089EF  26256.22882443  .00001992  00000-0  12416-2 0  9993
2 09988 103.0392   1.0194 0210442  37.6711 323.8965 13.96494154516753

Suivez THORAD DELTA 1 DEB en temps réel avec AllMySat

Download on the App Store